Location: Unspecified
(54.1780°N, 0.0000°E)
Time: 09:03:31
(UTC+00:00)

Vanguard 1 - Visible Passes

Search period start: 19 June 2019 00:00
Search period end: 29 June 2019 00:00
Orbit: 654 x 3829 km, 34.2° (Epoch: 18 June)

Date Brightness Start Highest point End Pass type
(mag) Time Alt. Az. Time Alt. Az. Time Alt. Az.
19 Jun 13.0 02:33:58 10° SSW 02:41:57 16° SSE 02:48:03 10° SE visible
21 Jun 13.3 00:56:01 10° S 01:02:29 13° SSE 01:07:57 10° SE visible
22 Jun 13.2 01:13:54 11° S 01:23:12 17° SSE 01:30:51 10° ESE visible
23 Jun 13.0 01:32:31 11° SSW 01:43:56 21° SSE 01:52:42 10° ESE visible
23 Jun 13.5 23:38:22 11° SSE 23:43:20 12° SE 23:49:02 10° ESE visible
24 Jun 12.9 01:51:10 10° SSW 02:04:41 25° SSE 02:14:04 10° ESE visible
24 Jun 13.4 23:56:33 13° S 00:03:56 17° SSE 00:12:43 10° ESE visible
25 Jun 12.8 02:10:57 10° SW 02:25:26 28° S 02:35:09 10° ESE visible
26 Jun 13.2 00:14:23 14° S 00:24:36 21° SSE 00:34:56 10° ESE visible
26 Jun 12.7 02:31:07 10° SW 02:46:11 30° S 02:56:03 10° ESE visible
26 Jun 13.6 22:20:22 10° SE 22:23:52 11° SE 22:27:11 10° SE visible
27 Jun 13.1 00:31:36 12° SSW 00:45:16 25° SSE 00:56:32 10° ESE visible
27 Jun 13.5 22:35:03 11° SSE 22:44:18 15° SE 22:53:16 10° ESE visible
28 Jun 13.0 00:49:29 10° SSW 01:06:00 29° SSE 01:17:47 10° ESE visible
28 Jun 13.4 22:51:13 10° S 23:04:47 20° SE 23:16:08 10° ESE visible
